EW4496 Weather Reports


time (UTC)temp
C
wind
direction
speed
KPH
gust
KPH
rain 1hr
cm
rain 24hr
cm
rain mn
cm
humidity
%
barometer
mb
20260505083058 11 249 0.0 0.0 0.03 1.07 0.03 95 1014.4
20260505081558 11 285 0.0 0.0 0.03 1.07 0.03 95 1014.4
20260505080106 11 250 0.0 0.0 0.03 1.07 0.03 95 1014.3
20260505074534 11 290 0.0 0.0 0.05 1.07 0.03 94 1014.3
20260505073046 11 229 0.0 0.0 0.08 1.04 0.00 94 1014.6
20260505071542 11 175 0.0 0.0 0.10 1.04 0.00 94 1014.5
20260505070051 11 175 0.0 0.0 0.18 1.04 1.04 94 1014.6
20260505064542 11 175 0.0 0.0 0.20 1.02 1.02 94 1014.2
20260505063052 11 175 0.0 0.0 0.20 0.97 0.97 94 1014.5
20260505061544 11 175 0.0 0.0 0.18 0.91 0.91 94 1014.5
20260505060042 11 175 0.0 0.0 0.13 0.86 0.86 93 1014.1
20260505054542 11 175 0.0 0.0 0.08 0.81 0.81 93 1014.3
20260505053052 12 210 0.0 0.0 0.08 0.76 0.76 92 1014.4
20260505051542 11 193 0.0 0.0 0.10 0.71 0.71 93 1014.2
20260505041552 12 187 0.0 0.0 0.20 0.64 0.64 92 1014.6
20260505040050 12 188 0.0 0.0 0.23 0.58 0.58 91 1014.5
20260505034541 12 188 0.0 0.0 0.23 0.56 0.56 91 1014.5
20260505033041 12 188 0.0 0.0 0.18 0.51 0.51 91 1014.3
20260505031537 12 188 0.0 0.0 0.08 0.41 0.41 89 1014.4
20260505030011 12 188 0.0 0.0 0.03 0.36 0.36 88 1014.4
20260505024511 12 162 0.0 4.8 0.03 0.33 0.33 87 1013.8
20260505023011 12 166 0.0 8.0 0.03 0.33 0.33 88 1013.5
20260505021511 12 148 0.0 0.0 0.03 0.33 0.33 91 1013.7
20260505020111 12 220 0.0 0.0 0.05 0.33 0.33 90 1013.8
20260505014608 12 173 0.0 0.0 0.05 0.30 0.30 91 1013.6
20260505013056 12 120 0.0 1.6 0.08 0.30 0.30 90 1013.7
20260505011606 12 146 0.0 0.0 0.13 0.30 0.30 90 1013.5
20260505010055 12 146 0.0 1.6 0.13 0.28 0.28 89 1013.9
20260505004612 13 119 0.0 1.6 0.13 0.25 0.25 91 1014.1
20260505003110 13 139 0.0 0.0 0.10 0.23 0.23 90 1014.2
20260505001609 13 170 0.0 0.0 0.08 0.18 0.18 89 1014.2
20260505000118 13 133 0.0 1.6 0.10 0.15 0.15 87 1014.3
20260504234510 13 176 0.0 0.0 0.08 0.13 0.13 87 1014.1
20260504233010 13 166 0.0 0.0 0.08 0.13 0.13 86 1014.1
20260504231510 13 169 0.0 0.0 0.05 0.08 0.08 86 1014.2
20260504230012 13 169 0.0 0.0 0.05 0.05 0.05 84 1014.3
20260504224524 13 179 0.0 0.0 0.05 0.05 0.05 84 1014.3
20260504223034 14 189 0.0 3.2 0.05 0.05 0.05 84 1014.5
20260504221527 14 172 0.0 1.6 0.03 0.03 0.03 84 1014.5
20260504220025 14 160 0.0 1.6 0.00 0.00 0.00 83 1014.6
20260504214526 14 174 0.0 0.0 0.00 0.00 0.00 80 1014.6
20260504213052 15 159 0.0 0.0 0.00 0.00 0.00 81 1014.7
20260504211539 15 231 0.0 0.0 0.00 0.00 0.00 79 1014.8
20260504210041 15 323 0.0 0.0 0.00 0.00 0.00 76 1014.8
20260504204545 15 302 0.0 1.6 0.00 0.00 0.00 76 1014.5
20260504203157 15 209 0.0 0.0 0.00 0.00 0.00 75 1014.5
20260504201539 15 271 0.0 1.6 0.00 0.00 0.00 76 1014.6
20260504200039 15 278 0.0 3.2 0.00 0.00 0.00 76 1014.6
20260504194510 15 205 0.0 0.0 0.00 0.00 0.00 76 1014.8
20260504193053 15 309 0.0 0.0 0.00 0.00 0.00 78 1014.6
20260504191556 15 205 0.0 1.6 0.00 0.00 0.00 76 1014.8
20260504190049 15 246 0.0 0.0 0.00 0.00 0.00 74 1014.8
20260504184551 15 252 0.0 4.8 0.00 0.00 0.00 75 1014.9
20260504183049 15 236 0.0 8.0 0.00 0.00 0.00 74 1014.9
20260504181549 15 222 0.0 1.6 0.00 0.00 0.00 76 1015.0
20260504180049 15 297 0.0 6.4 0.00 0.00 0.00 77 1014.9
20260504174604 14 236 0.0 4.8 0.00 0.00 0.00 78 1014.7
20260504173103 14 251 0.0 1.6 0.00 0.00 0.00 77 1014.6
20260504171606 14 245 0.0 6.4 0.00 0.00 0.00 77 1014.6
20260504160111 13 217 0.0 4.8 0.00 0.00 0.00 81 1014.5
20260504120105 11 159 0.0 1.6 0.00 0.00 0.00 89 1013.5
20260504100112 11 232 0.0 0.0 0.00 0.00 0.00 88 1013.3